Location: Alpha Ridge Park
(39.3209°N, 76.9128°W)
Time: 15:14:53
(UTC-04:00)

Transit 2A - Pass Details

Date: 27 May 2019
Orbit: 593 x 966 km, 66.7° (Epoch: 15 June)

Event Time Altitude Azimuth Distance (km) Brightness Sun altitude
Rises 05:52:35 0° 159° (SSE) 3,518 9.3 0.4°
Reaches altitude 10° 05:55:58 10° 140° (SE) 2,631 9.0 1.0°
Maximum altitude 05:59:44 17° 102° (ESE) 2,214 9.3 1.6°
Drops below altitude 10° 06:03:35 10° 65° (ENE) 2,703 11.5 2.3°
Sets 06:07:06 0° 46° (NE) 3,658 11.2 2.9°
